Regional Weather Roundup
Issued by NWS

Home | Current Version | Previous Version | Text Only | Print | Product List | Glossary Off
Versions: 1 2 3 4 5 6 7 8 9 10 11 12 13 14 15 16 17 18 19 20 21 22 23 24 25 26 27 28 29 30 31 32 33 34 35 36 37 38 39 40 41 42 43 44 45 46 47 48 49 50

000
ASUS45 KSLC 171410
RWRUT

UTAH REGIONAL WEATHER ROUNDUP
NATIONAL WEATHER SERVICE SALT LAKE CITY UT
700 AM MST WED DEC 17 2014

UTZ001>011-023>025-171500-

NORTHERN UTAH

CITY           SKY/WX    TMP DP  RH WIND       PRES   REMARKS
BRIGHAM CITY   MOCLDY    30  27  89 CALM      29.99S
HILL AFB       MOCLDY    32  25  76 SE7       29.98R WCI  25
LOGAN          CLOUDY    30  27  88 CALM      29.99S
OGDEN          CLOUDY    31  28  89 CALM      29.98R
PROVO AIRPORT  CLOUDY    34  27  75 VRB3      29.98S
SALT LAKE CITY MOCLDY    31  28  89 CALM      29.99R
VERNAL         CLOUDY    22  21  96 N5        30.06S WCI  16
WENDOVER       PTCLDY    21  18  86 W3        30.00S
HEBER CITY     MOCLDY    28  23  80 CALM      29.97S
WEST JORDAN    PTCLDY    28  28 100 CALM      29.99R

$$

UTZ012>022-026-027-171500-

SOUTHERN/CENTRAL UTAH

CITY           SKY/WX    TMP DP  RH WIND       PRES   REMARKS
BLANDING       CLOUDY    33  29  86 CALM      30.04S
BRYCE CANYON   LGT SNOW  25  24  96 W3        29.96S FOG
CEDAR CITY     LGT SNOW  32  30  92 SW3       29.96R FOG
DELTA          MOCLDY    27  25  94 CALM      29.97S
MILFORD        CLOUDY    32  26  78 S7        29.96R WCI  26
MOAB/CYNLANDS  LGT SNOW  34  32  92 SE5       30.00R FOG     WCI  30
PRICE          MOCLDY    24  18  77 NE6       29.98S WCI  17
ST GEORGE      PTSUNNY   43  34  70 E8        30.01R
KANAB          CLOUDY    32  32 100 CALM      30.03R

$$

REGIONAL REPORTS     COLORADO/ARIZONA

CITY           SKY/WX    TMP DP  RH WIND       PRES   REMARKS
CRAIG, CO        N/A     14  13  95 MISG      30.01S
GRAND JUNCTION CLOUDY    31  28  89 CALM      30.02S
RIFLE          LGT SNOW  28  26  92 CALM      30.03S FOG
MONTROSE       CLOUDY    31  26  82 SW3       30.03S
CORTEZ         MOCLDY    30  26  85 CALM      29.98R
PAGE, AZ       CLOUDY    39  31  72 CALM      29.98R
GRAND CANYON   LGT SNOW  30  29  96 CALM      29.99R FOG
KINGMAN        MOCLDY    38  35  89 SW5       30.00R WCI  34
FLAGSTAFF      LGT SNOW  30  27  88 W3        29.98R FOG

$$

REGIONAL REPORTS    NEVADA/IDAHO/WYOMING

CITY           SKY/WX    TMP DP  RH WIND       PRES   REMARKS
LAS VEGAS, NV  CLOUDY    47  41  80 S7        29.95R
ELY            CLOUDY    22  19  89 S5        29.96R WCI  16
ELKO           FOG       22  20  92 NE3       29.98R VSB 1/4
POCATELLO, ID  CLEAR     23  22  96 CALM      30.00S
BURLEY         CLEAR     22  19  89 CALM      29.97S FOG
EVANSTON, WY   MOCLDY    26  18  71 SE3       29.96S
ROCK SPRINGS   FOG        9   6  88 S6        29.98S VSB 1/4 WCI  -1

$$



USA.gov is the U.S. government's official web portal to all federal, state and local government web resources and services.